Current Weather Conditions: station 62114

sailwx.info

See reports from other nearby stations

no recent reports received from weather station ID 62114

Tides Pressure Air temp Water temp Dewpoint Dewpoint depression Visibility Wind speed Wind direction Waves Ship positions
date/time (UTC)wind fromknots sea level pressurealtimeterstation pressurevisibilityair tempwater tempwave heightnotes
2015-Mar-03 10:00 250 17 3.7
2015-Mar-03 09:00 240 17 3.7
2015-Mar-03 08:00 220 16 3.6
2015-Mar-03 07:00 220 17 3.6
2015-Mar-03 06:00 220 17 3.6
2015-Mar-03 05:00 240 17 3.8
2015-Mar-03 04:00 240 20 3.7
2015-Mar-03 03:00 230 20 3.8
2015-Mar-03 02:00 240 20 3.8
2015-Mar-03 01:00 240 19 3.6
2015-Mar-03 00:00 240 20 4.0
2015-Mar-02 23:00 240 22 4.0
2015-Mar-02 22:00 240 24 4.2
2015-Mar-02 21:00 250 25 4.3
2015-Mar-02 20:00 250 20 4.5
2015-Mar-02 19:00 270 19 4.1
2015-Mar-02 18:00 260 20 3.8
2015-Mar-02 17:00 260 17 4.9
2015-Mar-02 16:00 250 18 4.8
2015-Mar-02 15:00 250 20 4.9
2015-Mar-02 14:00 250 18 5.3
2015-Mar-02 13:00 260 17 5.1
2015-Mar-02 11:00 260 22 4.8
2015-Mar-02 10:00 260 23 4.6
2015-Mar-02 09:00 280 20 3.6
2015-Mar-02 08:00 280 19 3.5